UAL233 KLAX-KSFO

Flight info

Callsign UAL233
Flight time 0h 55m
Altitude 34000
Route SUMMR2 STOKD DCT SERFR SERFR4
Aircraft A20N/M-SDE2E3FGHIRWXY/LB1

Departure

Time 2026-04-26 07:23
Airport Los Angeles International Airport (KLAX)

Arrival

Time 2026-04-26 08:18
Airport San Francisco International Airport (KSFO)
Time Latitude Longitude Altitude Speed Heading
2026-04-26 06:49 33.94153 -118.39897 129 ft 0 kts 270°
2026-04-26 07:11 33.94153 -118.39888 124 ft 4 kts 266°
2026-04-26 07:11 33.94159 -118.39858 125 ft 4 kts 233°
2026-04-26 07:12 33.94179 -118.39841 125 ft 4 kts 183°
2026-04-26 07:12 33.94188 -118.39841 124 ft 1 kts 172°
2026-04-26 07:15 33.94181 -118.39840 124 ft 4 kts 172°
2026-04-26 07:15 33.94119 -118.39830 126 ft 13 kts 173°
2026-04-26 07:16 33.94036 -118.39827 126 ft 0 kts 174°
2026-04-26 07:16 33.94033 -118.39826 126 ft 0 kts 174°
2026-04-26 07:17 33.93997 -118.39822 126 ft 14 kts 174°
2026-04-26 07:17 33.93922 -118.39787 127 ft 8 kts 121°
2026-04-26 07:17 33.93909 -118.39697 127 ft 13 kts 84°
2026-04-26 07:17 33.93924 -118.39544 129 ft 24 kts 83°
2026-04-26 07:18 33.93943 -118.39363 127 ft 20 kts 83°
2026-04-26 07:18 33.93959 -118.39210 127 ft 17 kts 83°
2026-04-26 07:18 33.93971 -118.39085 127 ft 13 kts 82°
2026-04-26 07:18 33.93982 -118.38986 129 ft 12 kts 83°
2026-04-26 07:19 33.93999 -118.38819 124 ft 29 kts 83°
2026-04-26 07:19 33.94022 -118.38596 129 ft 24 kts 83°
2026-04-26 07:19 33.94041 -118.38414 125 ft 19 kts 85°
2026-04-26 07:19 33.94052 -118.38304 129 ft 9 kts 81°
2026-04-26 07:20 33.94058 -118.38238 129 ft 7 kts 83°
2026-04-26 07:20 33.94065 -118.38170 129 ft 12 kts 83°
2026-04-26 07:20 33.94078 -118.38053 129 ft 13 kts 86°
2026-04-26 07:20 33.94074 -118.38027 129 ft 0 kts 115°
2026-04-26 07:21 33.94044 -118.38000 129 ft 10 kts 159°
2026-04-26 07:21 33.93988 -118.38028 127 ft 9 kts 246°
2026-04-26 07:22 33.93979 -118.38089 129 ft 2 kts 263°
2026-04-26 07:22 33.93976 -118.38112 129 ft 20 kts 263°
2026-04-26 07:22 33.93928 -118.38581 129 ft 91 kts 263°
2026-04-26 07:22 33.93823 -118.39586 182 ft 146 kts 262°
2026-04-26 07:23 33.93673 -118.40849 776 ft 149 kts 261°
2026-04-26 07:23 33.93545 -118.42019 1715 ft 138 kts 263°
2026-04-26 07:23 33.93430 -118.43186 2518 ft 149 kts 263°
2026-04-26 07:23 33.93302 -118.44574 2926 ft 186 kts 264°
2026-04-26 07:24 33.93152 -118.46299 2968 ft 231 kts 264°
2026-04-26 07:24 33.92977 -118.48390 3272 ft 267 kts 264°
2026-04-26 07:24 33.92785 -118.50656 4070 ft 269 kts 264°
2026-04-26 07:24 33.92606 -118.52815 4711 ft 252 kts 264°
2026-04-26 07:25 33.92435 -118.54892 5090 ft 247 kts 264°
2026-04-26 07:25 33.92263 -118.56966 5801 ft 252 kts 264°
2026-04-26 07:25 33.92089 -118.59068 6844 ft 253 kts 264°
2026-04-26 07:25 33.91916 -118.61156 7856 ft 255 kts 263°
2026-04-26 07:26 33.91791 -118.63297 8850 ft 259 kts 267°
2026-04-26 07:26 33.91761 -118.65475 9859 ft 262 kts 268°
2026-04-26 07:26 33.91752 -118.67711 10554 ft 276 kts 269°
2026-04-26 07:26 33.91745 -118.70108 11077 ft 294 kts 269°
2026-04-26 07:27 33.91738 -118.72622 11683 ft 303 kts 269°
2026-04-26 07:27 33.91730 -118.75163 11952 ft 305 kts 269°
2026-04-26 07:27 33.91720 -118.77720 12008 ft 306 kts 269°
2026-04-26 07:27 33.91710 -118.80281 11986 ft 306 kts 269°
2026-04-26 07:28 33.91707 -118.82814 11984 ft 307 kts 270°
2026-04-26 07:28 33.91761 -118.85389 12128 ft 309 kts 271°
2026-04-26 07:28 33.91836 -118.87985 12905 ft 311 kts 271°
2026-04-26 07:28 33.91915 -118.90588 13956 ft 311 kts 271°
2026-04-26 07:29 33.91992 -118.93195 14861 ft 313 kts 271°
2026-04-26 07:29 33.92070 -118.95822 15747 ft 315 kts 271°
2026-04-26 07:29 33.92152 -118.98468 16625 ft 317 kts 272°
2026-04-26 07:29 33.92456 -119.01104 17485 ft 321 kts 282°
2026-04-26 07:30 33.93272 -119.03621 18322 ft 327 kts 294°
2026-04-26 07:30 33.94407 -119.05972 19014 ft 331 kts 298°
2026-04-26 07:30 33.95639 -119.08338 19687 ft 335 kts 298°
2026-04-26 07:30 33.96890 -119.10724 20363 ft 339 kts 298°
2026-04-26 07:31 33.98150 -119.13141 21059 ft 342 kts 298°
2026-04-26 07:31 33.99422 -119.15576 21752 ft 345 kts 298°
2026-04-26 07:31 34.00861 -119.17924 22412 ft 352 kts 306°
2026-04-26 07:31 34.02644 -119.20003 23055 ft 362 kts 315°
2026-04-26 07:32 34.04642 -119.21823 23651 ft 367 kts 318°
2026-04-26 07:32 34.06736 -119.23616 24159 ft 371 kts 318°
2026-04-26 07:32 34.08852 -119.25416 24657 ft 374 kts 318°
2026-04-26 07:32 34.10982 -119.27232 25150 ft 376 kts 318°
2026-04-26 07:33 34.13123 -119.29066 25641 ft 379 kts 317°
2026-04-26 07:33 34.15277 -119.30916 26120 ft 381 kts 317°
2026-04-26 07:33 34.17448 -119.32783 26579 ft 384 kts 317°
2026-04-26 07:33 34.19628 -119.34661 27033 ft 386 kts 317°
2026-04-26 07:34 34.21822 -119.36553 27461 ft 389 kts 317°
2026-04-26 07:34 34.23999 -119.38433 27889 ft 392 kts 317°
2026-04-26 07:34 34.26226 -119.40356 28309 ft 394 kts 317°
2026-04-26 07:34 34.28466 -119.42293 28710 ft 397 kts 317°
2026-04-26 07:35 34.30719 -119.44242 29113 ft 400 kts 317°
2026-04-26 07:35 34.32987 -119.46204 29505 ft 402 kts 317°
2026-04-26 07:35 34.35269 -119.48181 29878 ft 405 kts 317°
2026-04-26 07:35 34.37568 -119.50174 30201 ft 408 kts 317°
2026-04-26 07:36 34.39869 -119.52189 30494 ft 409 kts 316°
2026-04-26 07:36 34.41997 -119.54387 30777 ft 407 kts 310°
2026-04-26 07:36 34.44018 -119.56791 31064 ft 408 kts 309°
2026-04-26 07:36 34.46019 -119.59246 31350 ft 411 kts 309°
2026-04-26 07:37 34.48028 -119.61723 31644 ft 413 kts 309°
2026-04-26 07:37 34.50036 -119.64199 32021 ft 412 kts 309°
2026-04-26 07:37 34.52048 -119.66678 32418 ft 412 kts 309°
2026-04-26 07:37 34.54055 -119.69153 32786 ft 412 kts 309°
2026-04-26 07:38 34.56063 -119.71628 33148 ft 411 kts 309°
2026-04-26 07:38 34.58067 -119.74102 33505 ft 411 kts 309°
2026-04-26 07:38 34.60047 -119.76549 33854 ft 412 kts 309°
2026-04-26 07:38 34.62049 -119.79021 33963 ft 406 kts 309°
2026-04-26 07:39 34.64006 -119.81435 33976 ft 396 kts 309°
2026-04-26 07:39 34.67833 -119.86173 33982 ft 392 kts 309°
2026-04-26 07:40 34.71642 -119.90901 33983 ft 392 kts 309°
2026-04-26 07:40 34.75454 -119.95635 33983 ft 392 kts 309°
2026-04-26 07:41 34.79241 -120.00342 33984 ft 392 kts 309°
2026-04-26 07:41 34.83050 -120.05085 33984 ft 392 kts 309°
2026-04-26 07:42 34.86860 -120.09833 33986 ft 392 kts 309°
2026-04-26 07:42 34.90656 -120.14571 33994 ft 392 kts 309°
2026-04-26 07:43 34.94444 -120.19308 33990 ft 393 kts 309°
2026-04-26 07:43 34.98256 -120.24080 33993 ft 392 kts 309°
2026-04-26 07:44 35.02062 -120.28852 33996 ft 393 kts 310°
2026-04-26 07:44 35.05870 -120.33632 33993 ft 393 kts 309°
2026-04-26 07:45 35.09735 -120.38360 33992 ft 394 kts 312°
2026-04-26 07:45 35.13755 -120.42870 33983 ft 395 kts 313°
2026-04-26 07:46 35.17813 -120.47403 33988 ft 396 kts 313°
2026-04-26 07:46 35.21872 -120.51953 33985 ft 397 kts 313°
2026-04-26 07:47 35.25939 -120.56520 33981 ft 397 kts 314°
2026-04-26 07:47 35.29975 -120.61061 33981 ft 398 kts 314°
2026-04-26 07:48 35.34054 -120.65657 33983 ft 399 kts 314°
2026-04-26 07:48 35.38140 -120.70266 33985 ft 400 kts 314°
2026-04-26 07:49 35.42226 -120.74883 33977 ft 400 kts 314°
2026-04-26 07:49 35.46290 -120.79481 33983 ft 400 kts 314°
2026-04-26 07:50 35.52797 -120.85950 33984 ft 403 kts 320°
2026-04-26 07:50 35.57278 -120.90098 33983 ft 403 kts 320°
2026-04-26 07:51 35.61718 -120.94217 33981 ft 403 kts 320°
2026-04-26 07:51 35.66183 -120.98368 33982 ft 402 kts 320°
2026-04-26 07:52 35.70649 -121.02528 33972 ft 402 kts 320°
2026-04-26 07:52 35.75109 -121.06689 33975 ft 402 kts 320°
2026-04-26 07:53 35.79583 -121.10870 33972 ft 409 kts 320°
2026-04-26 07:53 35.84172 -121.15166 33966 ft 422 kts 320°
2026-04-26 07:54 35.88845 -121.19542 33974 ft 421 kts 320°
2026-04-26 07:54 35.91169 -121.21721 33853 ft 417 kts 321°
2026-04-26 07:54 35.93465 -121.23875 33588 ft 412 kts 321°
2026-04-26 07:55 35.95734 -121.26007 33316 ft 409 kts 321°
2026-04-26 07:55 35.97994 -121.28132 33038 ft 407 kts 321°
2026-04-26 07:55 36.00240 -121.30246 32790 ft 405 kts 321°
2026-04-26 07:55 36.02437 -121.32314 32533 ft 398 kts 321°
2026-04-26 07:56 36.04625 -121.34376 32153 ft 393 kts 321°
2026-04-26 07:56 36.06819 -121.36386 31657 ft 392 kts 325°
2026-04-26 07:56 36.09085 -121.38219 31278 ft 388 kts 326°
2026-04-26 07:56 36.11362 -121.40000 30855 ft 385 kts 327°
2026-04-26 07:57 36.13624 -121.41760 30414 ft 383 kts 327°
2026-04-26 07:57 36.15874 -121.43512 29975 ft 381 kts 327°
2026-04-26 07:57 36.18107 -121.45252 29483 ft 378 kts 327°
2026-04-26 07:57 36.20326 -121.46984 29038 ft 375 kts 327°
2026-04-26 07:58 36.22489 -121.48674 28623 ft 372 kts 327°
2026-04-26 07:58 36.24666 -121.50377 28180 ft 369 kts 327°
2026-04-26 07:58 36.26826 -121.52068 27746 ft 366 kts 328°
2026-04-26 07:58 36.28968 -121.53746 27308 ft 363 kts 328°
2026-04-26 07:59 36.31098 -121.55415 26869 ft 361 kts 328°
2026-04-26 07:59 36.33216 -121.57076 26437 ft 359 kts 328°
2026-04-26 07:59 36.35321 -121.58728 26009 ft 357 kts 328°
2026-04-26 07:59 36.37464 -121.60411 25581 ft 377 kts 328°
2026-04-26 08:00 36.39700 -121.62167 25109 ft 390 kts 328°
2026-04-26 08:00 36.42003 -121.63978 24638 ft 391 kts 328°
2026-04-26 08:00 36.44292 -121.65780 24173 ft 388 kts 328°
2026-04-26 08:00 36.46561 -121.67568 23693 ft 385 kts 328°
2026-04-26 08:01 36.48815 -121.69345 23158 ft 381 kts 328°
2026-04-26 08:01 36.51042 -121.71103 22681 ft 377 kts 328°
2026-04-26 08:01 36.53246 -121.72843 22225 ft 374 kts 329°
2026-04-26 08:01 36.55430 -121.74570 21767 ft 371 kts 329°
2026-04-26 08:02 36.57596 -121.76283 21311 ft 367 kts 329°
2026-04-26 08:02 36.59712 -121.77958 20860 ft 364 kts 329°
2026-04-26 08:02 36.61835 -121.79640 20409 ft 360 kts 329°
2026-04-26 08:02 36.63940 -121.81308 19961 ft 357 kts 329°
2026-04-26 08:03 36.66030 -121.82965 19503 ft 354 kts 329°
2026-04-26 08:03 36.68102 -121.84610 19040 ft 351 kts 329°
2026-04-26 08:03 36.70153 -121.86239 18614 ft 349 kts 329°
2026-04-26 08:03 36.72190 -121.87857 18149 ft 346 kts 329°
2026-04-26 08:04 36.74297 -121.89271 17626 ft 341 kts 341°
2026-04-26 08:04 36.76524 -121.90096 17382 ft 339 kts 347°
2026-04-26 08:04 36.78823 -121.90760 16991 ft 338 kts 348°
2026-04-26 08:04 36.81112 -121.91388 16548 ft 337 kts 348°
2026-04-26 08:05 36.83394 -121.92014 16125 ft 335 kts 348°
2026-04-26 08:05 36.85666 -121.92641 15690 ft 334 kts 348°
2026-04-26 08:05 36.87934 -121.93270 15257 ft 333 kts 348°
2026-04-26 08:05 36.90193 -121.93899 14837 ft 332 kts 348°
2026-04-26 08:06 36.92444 -121.94527 14407 ft 331 kts 347°
2026-04-26 08:06 36.94656 -121.95164 13991 ft 330 kts 346°
2026-04-26 08:06 36.96862 -121.95951 13554 ft 329 kts 343°
2026-04-26 08:06 36.99044 -121.96793 13127 ft 328 kts 342°
2026-04-26 08:07 37.01218 -121.97643 12709 ft 326 kts 342°
2026-04-26 08:07 37.03378 -121.98489 12287 ft 325 kts 342°
2026-04-26 08:07 37.05529 -121.99330 11872 ft 323 kts 342°
2026-04-26 08:07 37.07672 -122.00168 11443 ft 322 kts 342°
2026-04-26 08:08 37.09800 -122.01000 11016 ft 320 kts 342°
2026-04-26 08:08 37.11891 -122.01818 10615 ft 318 kts 342°
2026-04-26 08:08 37.13999 -122.02642 10196 ft 317 kts 342°
2026-04-26 08:08 37.16096 -122.03463 9926 ft 315 kts 342°
2026-04-26 08:09 37.18186 -122.04281 9511 ft 314 kts 342°
2026-04-26 08:09 37.20265 -122.05095 9103 ft 312 kts 342°
2026-04-26 08:09 37.22327 -122.05904 8873 ft 306 kts 342°
2026-04-26 08:09 37.24292 -122.06674 8634 ft 285 kts 342°
2026-04-26 08:10 37.26129 -122.07395 8309 ft 270 kts 341°
2026-04-26 08:10 37.27873 -122.08082 8039 ft 264 kts 341°
2026-04-26 08:10 37.29626 -122.08769 7590 ft 264 kts 341°
2026-04-26 08:10 37.31372 -122.09454 7220 ft 261 kts 341°
2026-04-26 08:11 37.33102 -122.10135 6879 ft 259 kts 341°
2026-04-26 08:11 37.34820 -122.10810 6541 ft 259 kts 341°
2026-04-26 08:11 37.36541 -122.11488 6189 ft 259 kts 341°
2026-04-26 08:11 37.38262 -122.12116 5904 ft 259 kts 342°
2026-04-26 08:12 37.40032 -122.12725 5242 ft 267 kts 342°
2026-04-26 08:12 37.41787 -122.13315 4942 ft 261 kts 342°
2026-04-26 08:12 37.43515 -122.13892 4596 ft 257 kts 342°
2026-04-26 08:12 37.45246 -122.14472 4130 ft 257 kts 342°
2026-04-26 08:13 37.46979 -122.15056 3694 ft 257 kts 342°
2026-04-26 08:13 37.48706 -122.15640 3312 ft 255 kts 342°
2026-04-26 08:13 37.50386 -122.16204 3157 ft 245 kts 342°
2026-04-26 08:13 37.51980 -122.16778 3042 ft 230 kts 336°
2026-04-26 08:14 37.53259 -122.17776 3015 ft 207 kts 314°
2026-04-26 08:14 37.54219 -122.19034 3069 ft 190 kts 306°
2026-04-26 08:14 37.54899 -122.20339 2952 ft 176 kts 295°
2026-04-26 08:14 37.55464 -122.21671 2664 ft 168 kts 295°
2026-04-26 08:15 37.56004 -122.22946 2374 ft 161 kts 294°
2026-04-26 08:15 37.56516 -122.24157 2165 ft 149 kts 294°
2026-04-26 08:15 37.56979 -122.25254 1954 ft 135 kts 294°
2026-04-26 08:15 37.57404 -122.26265 1776 ft 127 kts 293°
2026-04-26 08:16 37.57815 -122.27248 1598 ft 127 kts 294°
2026-04-26 08:16 37.58227 -122.28236 1421 ft 128 kts 293°
2026-04-26 08:16 37.58644 -122.29231 1233 ft 129 kts 294°
2026-04-26 08:16 37.59055 -122.30213 1051 ft 129 kts 294°
2026-04-26 08:17 37.59473 -122.31214 861 ft 129 kts 295°
2026-04-26 08:17 37.59894 -122.32218 689 ft 129 kts 295°
2026-04-26 08:17 37.60311 -122.33214 508 ft 127 kts 294°
2026-04-26 08:17 37.60715 -122.34195 324 ft 125 kts 293°
2026-04-26 08:18 37.61126 -122.35168 193 ft 126 kts 293°
2026-04-26 08:18 37.61537 -122.36149 23 ft 124 kts 288°
2026-04-26 08:18 37.61867 -122.36940 21 ft 76 kts 299°
2026-04-26 08:18 37.62042 -122.37354 21 ft 42 kts 297°
2026-04-26 08:19 37.62170 -122.37659 25 ft 36 kts 296°
2026-04-26 08:19 37.62214 -122.37948 26 ft 31 kts 278°
2026-04-26 08:19 37.62228 -122.38201 29 ft 27 kts 267°
2026-04-26 08:19 37.62220 -122.38427 24 ft 24 kts 268°
2026-04-26 08:20 37.62215 -122.38545 23 ft 0 kts 268°
2026-04-26 08:22 37.62206 -122.38596 22 ft 10 kts 246°
2026-04-26 08:22 37.62150 -122.38622 23 ft 9 kts 148°
2026-04-26 08:22 37.62115 -122.38559 22 ft 11 kts 117°
2026-04-26 08:22 37.62051 -122.38506 22 ft 12 kts 202°
2026-04-26 08:23 37.61973 -122.38556 21 ft 2 kts 207°
2026-04-26 08:23 37.61950 -122.38573 19 ft 9 kts 220°
2026-04-26 08:23 37.61914 -122.38617 19 ft 3 kts 224°
2026-04-26 08:23 37.61909 -122.38623 20 ft 0 kts 224°